Content
SEND FEEDBACK

Daily
Averages
Monthly
Summary
United States of America

OLYMPIA, WASHINGTON


Home > North America > United States > Washington
Elevation: 58 meters     Latitude: 46 58N     Longitude: 122 54W

WEATHER
 
SELECT A DAY
Number of Records: 232,856;   Date Range: 1/1/95 - 8/12/14
 
SHARE

PRINT THIS DATA

[ ← Previous Day ]
WEATHER ALMANAC - 31 JANUARY, 2013
[ Next Day → ]
[ °F ]   °C
Weather ElementAverageHighLow
Temperature7.8 °C8.9 °C (12:54 pm)5.6 °C (6:54 am)
Dewpoint6.9 °C8 °C (5:54 pm)5 °C (6:54 am)
Humidity94.1 %100 % (5:54 pm)89 % (12:54 pm)
Barometer1028.1 hPa1030.1 hPa (2:54 am)1026.8 hPa (3:52 pm)
Wind Speed11.7 km/h16.7 km/h (2:54 pm)
Weather ElementAverage
Visibility11.7 km
Wind DirectionSSW (205 °)

Weather ElementTotal
Precipitation1.02 mm
Heating Degree Days11.1 (Base 18.3)
Averaged from 30 records on 31 January, 2013
WEATHER CONDITIONS BREAKOUT
WIND DIRECTION BREAKOUT
WEATHER BY HOUR - 31 JANUARY, 2013
[ °F ]   °C
Local TimeTemperatureDewpointHumidityBarometerVisibilityWind DirectionWind SpeedGust SpeedPrecipitationEventsConditions
12:54 AM8.3 °C7.2 °C93 %1029.1 hPa16.1 kmSSW (210°)13 km/hOvercast
1:54 AM8.3 °C7.2 °C93 %1029.8 hPa16.1 kmSSW (200°)11.1 km/hOvercast
2:54 AM8.3 °C7.2 °C93 %1030.1 hPa16.1 kmSSW (210°)14.8 km/hOvercast
3:54 AM7.8 °C6.7 °C93 %1029.8 hPa16.1 kmSSW (210°)14.8 km/hScattered Clouds
4:54 AM7.2 °C6.1 °C93 %1029.5 hPa16.1 kmSSW (210°)14.8 km/hClear
5:54 AM6.7 °C5.6 °C93 %1029.5 hPa16.1 kmSSW (210°)11.1 km/hClear
6:54 AM5.6 °C5 °C96 %1029.5 hPa16.1 kmSouth (190°)11.1 km/hMostly Cloudy
7:54 AM6.1 °C5.6 °C97 %1029.1 hPa16.1 kmSW (220°)7.4 km/hMostly Cloudy
8:54 AM7.2 °C6.7 °C97 %1029.1 hPa16.1 kmSW (220°)7.4 km/h0 mmOvercast
9:18 AM7.8 °C6.7 °C93 %1029.1 hPa16.1 kmSW (230°)11.1 km/hOvercast
9:54 AM7.8 °C6.7 °C93 %1029.5 hPa12.9 kmSW (220°)9.3 km/h0 mmRainLight Rain
10:54 AM7.8 °C7.2 °C96 %1029.1 hPa16.1 kmSSW (210°)13 km/h1.02 mmRainLight Rain
11:54 AM8.3 °C6.7 °C90 %1028.4 hPa16.1 kmSSW (200°)13 km/h0 mmMostly Cloudy
12:54 PM8.9 °C7.2 °C89 %1028.1 hPa16.1 kmSSW (210°)14.8 km/hMostly Cloudy
1:54 PM8.9 °C7.2 °C89 %1027.4 hPa6.4 kmSSW (200°)14.8 km/h0 mmOvercast
2:54 PM8.3 °C6.7 °C90 %1027.4 hPa14.5 kmSouth (190°)16.7 km/hOvercast
3:52 PM8 °C7 °C93 %1026.8 hPa6.4 kmSSW (210°)14.8 km/h0 mmOvercast
3:54 PM8.3 °C7.2 °C93 %1027.1 hPa6.4 kmSSW (200°)13 km/h0 mmOvercast
4:21 PM8.3 °C7.2 °C93 %1026.8 hPa4.8 kmSouth (190°)14.8 km/hOvercast
4:54 PM8.3 °C7.2 °C93 %1027.1 hPa4.8 kmSSW (200°)14.8 km/hOvercast
5:54 PM8 °C8 °C100 %1027.1 hPa4.8 kmSouth (190°)9.3 km/hOvercast
6:54 PM8 °C7 °C93 %1026.8 hPa8 kmSSW (200°)11.1 km/hOvercast
7:47 PM7.8 °C7.2 °C96 %1026.8 hPa6.4 kmSSW (210°)9.3 km/hOvercast
7:54 PM7.2 °C7.2 °C100 %1026.8 hPa6.4 kmSSW (210°)7.4 km/hOvercast
8:16 PM7.2 °C6.7 °C97 %1026.8 hPa9.7 kmSW (220°)9.3 km/hOvercast
8:54 PM7.8 °C7.2 °C96 %1026.8 hPa9.7 kmSSW (200°)13 km/hOvercast
9:12 PM7.8 °C7.2 °C96 %1026.8 hPa11.3 kmSSW (200°)11.1 km/hOvercast
9:54 PM8 °C7 °C93 %1027.1 hPa11.3 kmSSW (210°)9.3 km/hOvercast
10:54 PM7.8 °C7.2 °C96 %1027.4 hPa11.3 kmSouth (190°)9.3 km/hOvercast
11:54 PM7.8 °C7.2 °C96 %1027.8 hPa8 kmSouth (180°)9.3 km/hOvercast
Hourly data recorded from KOLM, located 0 kilometers away from Olympia, Washington







STORIES FROM OUR PARTNERS